{"data":{"norad_id":53775,"intl_designator":"2022-111C","name":"STARLINK-4722","alt_names":[],"object_type":"PAYLOAD","status":"ACTIVE","operator":null,"country":"US","launch_date":"2022-09-11","launch_site_code":"AFETR","launch_vehicle":null,"mission":null,"orbit_class":"UNKNOWN","rcs_meters":null,"size_class":null,"mass_kg":null,"dimensions":null,"purposes":["comms"],"wikipedia_slug":null,"has_3d_model":false,"image_url":null,"decayed_at":null,"tle_current":{"epoch":"2026-09-20T02:57:54.096192Z","epoch_age_seconds":116597,"freshness":"FRESH","line1":"1 53775U 22111C   26263.12354278  .00000567  00000+0  30047-4 0  9990","line2":"2 53775  53.1600 108.3939 0001248  86.4910 273.6234 15.31704515223220","mean_motion":15.31704515,"eccentricity":0.0001248,"inclination_deg":53.16,"raan_deg":108.3939,"arg_perigee_deg":86.491,"mean_anomaly_deg":273.6234,"bstar":3.0047e-5,"rev_number":22322,"period_min":94.012910838746,"perigee_km":469.87179810932,"apogee_km":471.58127444798,"semimajor_km":6848.8635362786,"source":"CELESTRAK","updated_at":"2026-09-21T09:00:32.991708Z"}}}